Miscellaneous Local Product
Issued by NWS North Platte, NE

Home | Current Version | Previous Version | Text Only | Print | Product List | Glossary On
Versions: 1 2 3 4 5 6 7 8 9 10 11 12 13 14 15 16 17 18 19 20 21 22 23 24 25 26 27 28 29 30 31 32 33 34 35 36 37 38 39 40 41 42 43 44 45 46 47 48 49 50
000
AXUS43 KLBF 231010
MISLBF


WESTERN AND NORTH CENTRAL NEBRASKA HOURLY WEATHER ROUNDUP
NATIONAL WEATHER SERVICE NORTH PLATTE NE
500 AM CDT THU MAR 23 2017

NOTE: "FAIR" INDICATES FEW OR NO CLOUDS BELOW 12,000 FEET WITH NO
SIGNIFICANT WEATHER AND/OR OBSTRUCTIONS TO VISIBILITY.

NOTE: STATIONS NOT REPORTING VARIABLES SUCH AS SKY/WEATHER OR
PRESSURE ARE PROVIDED BY RAWS AND APRS NETWORKS AND ARE NOT UNDER
NATIONAL WEATHER SERVICE QUALITY CONTROL.

...OBSERVATIONS IN AND NEAR THE EASTERN PANHANDLE OF NEBRASKA...

CITY           SKY/WX    TMP DP  RH WIND       PRES   REMARKS
PINE RIDGE     PTCLDY    45  36  70 VRB3G17   29.70F
CHADRON        CLOUDY    46  36  68 VRB5      29.70S
ALLIANCE       CLOUDY    40  34  79 S16G25    29.72F WCI  31
SIDNEY         CLOUDY    35  32  88 SE6       29.71F WCI  30
CRESCENT LAKE    N/A     39  35  86 SE9G22      N/A  WCI  33
$$

...OBSERVATIONS IN NORTHERN NEBRASKA AND FAR SOUTHERN SOUTH DAKOTA...

CITY           SKY/WX    TMP DP  RH WIND       PRES   REMARKS
WINNER         FAIR      47  34  60 S26G36    29.76F
VALENTINE      CLOUDY    43  33  68 S12       29.78F
THEDFORD       CLOUDY    44  36  74 SE12      29.80F
AINSWORTH      PTCLDY    42  36  78 S15G21    29.80F
O`NEILL        PTCLDY    46  30  55 S17       29.88F
ORD            CLOUDY    45  27  49 SE12      29.87F
BROKEN BOW     CLOUDY    42  31  64 SE12      29.84F
VALENTINE NWR    N/A     41  33  72 S13G24      N/A
HALSEY           N/A     42  35  75 S9G20       N/A
BUTTE            N/A     41  32  69 SE12G20     N/A
CHAMBERS         N/A     44  28  53 S7          N/A
EWING            N/A     43  32  65 S8          N/A
$$

...OBSERVATIONS IN SOUTHWEST NEBRASKA AND FAR NORTHEAST COLORADO...

CITY           SKY/WX    TMP DP  RH WIND       PRES   REMARKS
WRAY           FAIR      48  43  81 MISG      29.73F
HOLYOKE        FAIR      37  36  93 E8        29.72F WCI  31
IMPERIAL       PTCLDY    41  38  89 SE9       29.76F
OGALLALA       CLOUDY    40  36  86 E7        29.77F WCI  35
NORTH PLATTE   CLOUDY    46  35  65 SE15G28   29.80F
MCCOOK         CLOUDY    43  37  79 SE8       29.81F
LEXINGTON      CLOUDY    45  33  63 SE14      29.84F
STAPLETON        N/A     42  35  76 CALM        N/A
GOTHENBURG       N/A     43  32  64 SE10        N/A
CALLAWAY         N/A     41  33  72 SE20        N/A
$$

...OBSERVATIONS IN CENTRAL LINCOLN COUNTY AREA...

CITY           SKY/WX    TMP DP  RH WIND       PRES   REMARKS
N.P. AIRPORT   CLOUDY    46  35  65 SE15G28   29.80F
N.P. DOWNTOWN    N/A     44  36  74 SE5G14      N/A
N.P. SOUTHEAST   N/A     44  36  73 SE8G17      N/A
N.P. HILLCREST   N/A     44  37  76 SE13        N/A
$$

...SOME OBSERVATIONS FROM AROUND THE REGION...

CITY           SKY/WX    TMP DP  RH WIND       PRES   REMARKS
DENVER         PTCLDY    54  35  48 S21       29.70F
LIMON          CLOUDY    38  38 100 SE5       29.77F FOG     WCI  34
ASPEN          CLOUDY    40  31  70 CALM      29.87F
LARAMIE        CLOUDY    36  24  62 NW3       29.80R
GILLETTE       LGT RAIN  50  42  74 W6        29.72R
CHEYENNE       CLOUDY    38  33  82 W10       29.73F WCI  31
SCOTTSBLUFF    CLOUDY    43  34  70 E12       29.71F
GRAND ISLAND   CLOUDY    47  30  51 SE13      29.92F
OMAHA          CLOUDY    46  21  37 SE16      30.05F
SIOUX FALLS    CLOUDY    41  27  57 SE14      29.99F
PIERRE         PTCLDY    44  30  57 SE13      29.77F
RAPID CITY     PTCLDY    47  37  68 CALM      29.67F
BISMARCK       CLOUDY    32  28  85 NE9       29.78F WCI  24
KANSAS CITY    CLOUDY    50  31  48 SE14      30.08F
HILL CITY      CLOUDY    50  45  83 SE13      29.86F
WICHITA        CLOUDY    56  46  69 SE13      29.96F
DODGE CITY     FOG       55  54  96 S18       29.86F VSB 1/2
OKLAHOMA CITY  PTCLDY    60  57  89 S16       29.97F
DALLAS         PTCLDY    67  62  84 S16       30.00F
AMARILLO       CLOUDY    59  55  87 S24       29.88F
$$




USA.gov is the U.S. government's official web portal to all federal, state and local government web resources and services.